AI0J-13 Weather Reports


Display with metric or nautical units.
time (UTC)temp
F
wind
direction
speed
MPH
gust
MPH
rain 1hr
in
rain 24hr
in
rain mn
in
humidity
%
barometer
mb
20230203190002 41 186 3.0 20.0 0.00 0.00 0.00 18 1013.5
20230203185501 41 246 3.0 21.0 0.00 0.00 0.00 19 1013.6
20230203185002 40 229 14.0 20.0 0.00 0.00 0.00 19 1014.1
20230203184002 39 244 16.0 25.0 0.00 0.00 0.00 18 1014.1
20230203183002 40 185 0.0 23.0 0.00 0.00 0.00 19 1014.3
20230203182502 39 265 7.0 30.0 0.00 0.00 0.00 18 1014.5
20230203182002 39 259 16.0 30.0 0.00 0.00 0.00 17 1014.3
20230203181501 39 307 16.0 33.0 0.00 0.00 0.00 17 1014.5
20230203181002 38 251 13.0 31.0 0.00 0.00 0.00 18 1014.4
20230203180502 39 236 10.0 27.0 0.00 0.00 0.00 17 1014.6
20230203180002 39 267 17.0 25.0 0.00 0.00 0.00 17 1014.8
20230203175502 39 288 9.0 27.0 0.00 0.00 0.00 17 1014.7
20230203175001 38 290 13.0 32.0 0.00 0.00 0.00 17 1014.7
20230203174502 38 282 15.0 30.0 0.00 0.00 0.00 17 1015.0
20230203174001 38 283 14.0 34.0 0.00 0.00 0.00 17 1014.6
20230203173002 38 244 5.0 34.0 0.00 0.00 0.00 16 1014.9
20230203172502 38 244 5.0 36.0 0.00 0.00 0.00 17 1014.8
20230203172001 38 244 15.0 29.0 0.00 0.00 0.00 16 1015.0
20230203171002 38 254 21.0 43.0 0.00 0.00 0.00 16 1014.8
20230203170002 37 217 9.0 30.0 0.00 0.00 0.00 17 1015.2
20230203165502 37 261 11.0 34.0 0.00 0.00 0.00 17 1015.1
20230203165001 36 253 19.0 32.0 0.00 0.00 0.00 17 1015.0
20230203164502 36 242 21.0 37.0 0.00 0.00 0.00 17 1015.0
20230203164002 36 223 12.0 33.0 0.00 0.00 0.00 18 1015.0
20230203163502 36 214 7.0 31.0 0.00 0.00 0.00 19 1015.0
20230203163002 36 256 25.0 30.0 0.00 0.00 0.00 20 1015.1
20230203162002 36 275 10.0 31.0 0.00 0.00 0.00 20 1015.0
20230203161501 36 241 11.0 22.0 0.00 0.00 0.00 20 1015.0
20230203161002 35 247 2.0 28.0 0.00 0.00 0.00 20 1014.9
20230203160501 35 283 6.0 33.0 0.00 0.00 0.00 21 1015.1
20230203160002 35 239 9.0 25.0 0.00 0.00 0.00 20 1014.9
20230203155502 34 243 19.0 23.0 0.00 0.00 0.00 20 1015.0
20230203155002 34 241 10.0 16.0 0.00 0.00 0.00 21 1014.6
20230203154502 34 210 4.0 24.0 0.00 0.00 0.00 21 1015.0
20230203154001 34 227 6.0 20.0 0.00 0.00 0.00 21 1014.9
20230203153501 34 183 3.0 24.0 0.00 0.00 0.00 20 1014.9
20230203153002 33 180 2.0 28.0 0.00 0.00 0.00 21 1014.8
20230203152502 33 239 13.0 32.0 0.00 0.00 0.00 21 1014.8
20230203152002 33 250 14.0 19.0 0.00 0.00 0.00 21 1015.1
20230203151002 33 231 13.0 33.0 0.00 0.00 0.00 21 1014.8
20230203150002 32 201 6.0 20.0 0.00 0.00 0.00 22 1014.8
20230203145502 32 228 6.0 29.0 0.00 0.00 0.00 22 1014.7
20230203145002 32 238 9.0 26.0 0.00 0.00 0.00 22 1015.2
20230203144502 32 279 21.0 42.0 0.00 0.00 0.00 22 1014.8
20230203144001 32 278 15.0 21.0 0.00 0.00 0.00 22 1015.0
20230203142501 31 249 4.0 21.0 0.00 0.00 0.00 22 1014.7
20230203142002 31 215 9.0 26.0 0.00 0.00 0.00 22 1014.7
20230203141501 31 225 10.0 25.0 0.00 0.00 0.00 22 1014.7
20230203141002 31 222 6.0 26.0 0.00 0.00 0.00 23 1014.6
20230203140501 30 294 13.0 27.0 0.00 0.00 0.00 24 1014.8
20230203140002 31 249 11.0 31.0 0.00 0.00 0.00 24 1014.8
20230203135502 30 257 23.0 23.0 0.00 0.00 0.00 25 1014.6
20230203135002 30 224 8.0 19.0 0.00 0.00 0.00 25 1014.7
20230203134502 30 315 5.0 26.0 0.00 0.00 0.00 25 1014.6
20230203134002 31 251 12.0 21.0 0.00 0.00 0.00 24 1014.7
20230203133502 30 248 14.0 20.0 0.00 0.00 0.00 24 1014.8
20230203133002 31 242 7.0 20.0 0.00 0.00 0.00 24 1014.7
20230203132502 30 187 4.0 21.0 0.00 0.00 0.00 25 1014.6
20230203132002 30 275 15.0 22.0 0.00 0.00 0.00 25 1014.5
20230203131002 30 288 5.0 17.0 0.00 0.00 0.00 24 1014.5
20230203130501 31 258 11.0 29.0 0.00 0.00 0.00 25 1014.7
20230203130002 31 249 14.0 31.0 0.00 0.00 0.00 25 1014.9
20230203125501 32 266 15.0 29.0 0.00 0.00 0.00 24 1014.7
20230203124502 30 244 29.0 29.0 0.00 0.00 0.00 25 1014.6
20230203124002 30 270 5.0 28.0 0.00 0.00 0.00 24 1014.4
20230203123502 30 249 12.0 26.0 0.00 0.00 0.00 24 1014.6
20230203123002 30 236 13.0 30.0 0.00 0.00 0.00 24 1014.8
20230203122502 30 270 13.0 22.0 0.00 0.00 0.00 24 1014.5
20230203122001 30 3 6.0 27.0 0.00 0.00 0.00 24 1014.7
20230203121002 30 214 5.0 21.0 0.00 0.00 0.00 23 1014.6
20230203120501 29 253 5.0 22.0 0.00 0.00 0.00 24 1014.8
20230203115502 30 257 15.0 29.0 0.00 0.00 0.00 23 1014.6
20230203115002 29 312 14.0 18.0 0.00 0.00 0.00 23 1014.6
20230203114001 30 163 3.0 28.0 0.00 0.00 0.00 24 1014.7
20230203113501 30 260 14.0 26.0 0.00 0.00 0.00 23 1014.6
20230203113002 29 268 13.0 23.0 0.00 0.00 0.00 23 1014.7
20230203112502 28 265 4.0 22.0 0.00 0.00 0.00 23 1015.0
20230203112001 28 211 4.0 21.0 0.00 0.00 0.00 23 1014.7
20230203111502 28 270 4.0 24.0 0.00 0.00 0.00 23 1014.7
20230203110002 28 191 9.0 28.0 0.00 0.00 0.00 22 1014.7
20230203105502 28 278 7.0 20.0 0.00 0.00 0.00 22 1014.9
20230203105001 28 254 8.0 30.0 0.00 0.00 0.00 22 1014.9
20230203104502 29 264 4.0 31.0 0.00 0.00 0.00 22 1014.8
20230203104002 28 232 20.0 26.0 0.00 0.00 0.00 21 1014.8
20230203103502 29 288 12.0 29.0 0.00 0.00 0.00 21 1014.6
20230203103001 28 264 14.0 22.0 0.00 0.00 0.00 21 1014.8
20230203102502 28 239 18.0 27.0 0.00 0.00 0.00 22 1014.7
20230203102002 29 235 15.0 21.0 0.00 0.00 0.00 21 1014.7
20230203101502 28 270 14.0 31.0 0.00 0.00 0.00 21 1014.8
20230203101002 28 242 10.0 29.0 0.00 0.00 0.00 22 1014.6
20230203100502 28 186 7.0 28.0 0.00 0.00 0.00 21 1014.5
20230203100001 28 262 19.0 30.0 0.00 0.00 0.00 21 1014.6
20230203095502 28 248 22.0 46.0 0.00 0.00 0.00 22 1014.7
20230203095001 28 248 15.0 28.0 0.00 0.00 0.00 21 1014.9
20230203094502 29 282 8.0 35.0 0.00 0.00 0.00 21 1014.8
20230203094001 28 242 5.0 30.0 0.00 0.00 0.00 21 1015.0
20230203093502 28 243 15.0 42.0 0.00 0.00 0.00 21 1015.0
20230203093001 28 194 7.0 28.0 0.00 0.00 0.00 20 1014.9
20230203092001 28 273 7.0 25.0 0.00 0.00 0.00 21 1014.9
20230203091001 28 226 7.0 25.0 0.00 0.00 0.00 21 1015.0
20230203090502 28 255 4.0 20.0 0.00 0.00 0.00 21 1014.8
20230203090002 28 261 5.0 30.0 0.00 0.00 0.00 20 1014.9
20230203085501 28 263 15.0 38.0 0.00 0.00 0.00 20 1014.7
20230203085002 28 315 13.0 27.0 0.00 0.00 0.00 20 1015.0
20230203084501 29 207 5.0 33.0 0.00 0.00 0.00 19 1015.2
20230203084002 28 257 21.0 30.0 0.00 0.00 0.00 18 1015.1
20230203083501 28 235 9.0 32.0 0.00 0.00 0.00 19 1015.1
20230203083002 29 270 11.0 32.0 0.00 0.00 0.00 18 1015.5
20230203082501 29 287 11.0 28.0 0.00 0.00 0.00 18 1015.3
20230203082002 29 269 10.0 27.0 0.00 0.00 0.00 18 1015.2
20230203081501 29 247 13.0 30.0 0.00 0.00 0.00 18 1015.5
20230203081002 28 240 11.0 30.0 0.00 0.00 0.00 18 1015.3
20230203080501 28 239 10.0 27.0 0.00 0.00 0.00 19 1015.4
20230203080002 28 250 15.0 30.0 0.00 0.00 0.00 19 1015.3
20230203075502 28 256 10.0 32.0 0.00 0.00 0.00 19 1015.3
20230203075002 28 268 7.0 29.0 0.00 0.00 0.00 19 1015.2
20230203074502 28 260 7.0 24.0 0.00 0.00 0.00 20 1015.1
20230203074001 28 244 11.0 33.0 0.00 0.00 0.00 19 1015.5
20230203072502 28 285 9.0 43.0 0.00 0.00 0.00 19 1015.3
20230203072001 28 278 16.0 42.0 0.00 0.00 0.00 19 1015.6
20230203071502 28 293 5.0 29.0 0.00 0.00 0.00 19 1015.4
20230203071001 28 249 13.0 30.0 0.00 0.00 0.00 20 1015.5
20230203070502 28 239 23.0 32.0 0.00 0.00 0.00 20 1015.2
20230203070001 28 243 9.0 27.0 0.00 0.00 0.00 21 1015.5
20230203065001 28 255 13.0 28.0 0.00 0.00 0.00 19 1015.5
20230203064001 28 251 15.0 36.0 0.00 0.00 0.00 20 1015.4
20230203063502 28 260 7.0 23.0 0.00 0.00 0.00 19 1015.4
20230203063002 28 262 10.0 32.0 0.00 0.00 0.00 19 1015.5
20230203062002 28 234 13.0 31.0 0.00 0.00 0.00 19 1015.8
20230203061502 28 252 22.0 22.0 0.00 0.00 0.00 19 1015.7
20230203061002 28 247 10.0 23.0 0.00 0.00 0.00 20 1015.5
20230203060502 29 253 17.0 32.0 0.00 0.00 0.00 19 1015.4
20230203060002 29 253 17.0 32.0 0.00 0.00 0.00 19 1015.4
20230203055002 28 297 3.0 25.0 0.00 0.00 0.00 20 1015.4
20230203054501 28 263 11.0 26.0 0.00 0.00 0.00 20 1015.2
20230203054002 28 249 18.0 23.0 0.00 0.00 0.00 20 1015.2
20230203053502 28 206 4.0 30.0 0.00 0.00 0.00 20 1015.1
20230203053002 28 270 2.0 26.0 0.00 0.00 0.00 21 1015.2
20230203052502 28 228 10.0 28.0 0.00 0.00 0.00 21 1015.2
20230203052001 28 232 7.0 25.0 0.00 0.00 0.00 21 1015.0
20230203051502 27 239 0.0 11.0 0.00 0.00 0.00 22 1015.0
20230203051002 28 207 6.0 26.0 0.00 0.00 0.00 22 1014.8
20230203050501 28 234 4.0 23.0 0.00 0.00 0.00 22 1014.9
20230203050002 28 247 15.0 33.0 0.00 0.00 0.00 21 1015.0
20230203044502 28 259 21.0 34.0 0.00 0.00 0.00 21 1014.8
20230203044002 28 193 5.0 29.0 0.00 0.00 0.00 21 1014.9
20230203043502 28 246 2.0 28.0 0.00 0.00 0.00 21 1014.6
20230203043001 28 253 8.0 32.0 0.00 0.00 0.00 20 1014.8
20230203042502 28 230 5.0 31.0 0.00 0.00 0.00 20 1014.7
20230203042002 28 264 14.0 27.0 0.00 0.00 0.00 19 1014.6
20230203041501 28 241 14.0 26.0 0.00 0.00 0.00 19 1014.4
20230203041002 29 244 16.0 27.0 0.00 0.00 0.00 18 1014.6
20230203040502 29 270 9.0 31.0 0.00 0.00 0.00 19 1014.5
20230203040002 28 283 22.0 36.0 0.00 0.00 0.00 19 1014.6
20230203035502 28 275 7.0 23.0 0.00 0.00 0.00 20 1014.6
20230203035002 29 204 11.0 32.0 0.00 0.00 0.00 19 1014.6
20230203034502 28 263 5.0 39.0 0.00 0.00 0.00 22 1014.3
20230203034002 28 244 11.0 32.0 0.00 0.00 0.00 21 1014.4
20230203033502 28 254 12.0 34.0 0.00 0.00 0.00 21 1014.7
20230203033001 28 252 8.0 34.0 0.00 0.00 0.00 23 1014.3
20230203032502 28 285 11.0 31.0 0.00 0.00 0.00 24 1014.7
20230203031502 28 237 6.0 30.0 0.00 0.00 0.00 25 1014.5
20230203031001 28 246 9.0 28.0 0.00 0.00 0.00 25 1014.6
20230203030502 28 261 9.0 23.0 0.00 0.00 0.00 24 1014.7
20230203025502 28 255 13.0 30.0 0.00 0.00 0.00 26 1014.6
20230203024502 28 239 17.0 35.0 0.00 0.00 0.00 27 1014.4
20230203024001 28 262 17.0 29.0 0.00 0.00 0.00 26 1014.4
20230203023502 28 291 10.0 46.0 0.00 0.00 0.00 27 1014.5
20230203023001 28 254 17.0 31.0 0.00 0.00 0.00 28 1014.4
20230203022502 28 230 14.0 29.0 0.00 0.00 0.00 29 1014.3
20230203022001 28 270 4.0 38.0 0.00 0.00 0.00 28 1014.4
20230203021502 28 251 29.0 33.0 0.00 0.00 0.00 28 1014.7
20230203021002 28 234 21.0 23.0 0.00 0.00 0.00 28 1014.5
20230203020502 28 284 19.0 31.0 0.00 0.00 0.00 28 1014.5
20230203020002 27 273 19.0 24.0 0.00 0.00 0.00 28 1014.7
20230203015501 28 310 12.0 26.0 0.00 0.00 0.00 28 1014.5
20230203014002 27 273 4.0 30.0 0.00 0.00 0.00 29 1014.6
20230203013502 28 249 22.0 31.0 0.00 0.00 0.00 28 1014.6
20230203013002 28 237 9.0 38.0 0.00 0.00 0.00 27 1014.3
20230203012502 28 274 14.0 32.0 0.00 0.00 0.00 27 1014.4
20230203012002 28 271 9.0 28.0 0.00 0.00 0.00 29 1014.4
20230203011501 28 257 15.0 31.0 0.00 0.00 0.00 28 1014.6
20230203011002 28 303 14.0 30.0 0.00 0.00 0.00 28 1014.3
20230203010502 28 241 10.0 24.0 0.00 0.00 0.00 29 1014.2
20230203010002 28 243 26.0 29.0 0.00 0.00 0.00 29 1014.3
20230203005501 28 249 15.0 32.0 0.00 0.00 0.00 28 1014.1
20230203005002 28 226 9.0 36.0 0.00 0.00 0.00 30 1014.1
20230203004501 28 298 18.0 32.0 0.00 0.00 0.00 29 1014.3
20230203004002 28 282 12.0 31.0 0.00 0.00 0.00 28 1014.3
20230203003002 28 244 9.0 36.0 0.00 0.00 0.00 29 1014.1
20230203002502 28 248 11.0 35.0 0.00 0.00 0.00 29 1013.9
20230203002001 28 284 10.0 31.0 0.00 0.00 0.00 30 1014.0
20230203001502 28 243 15.0 25.0 0.00 0.00 0.00 30 1014.1
20230203000501 28 283 19.0 35.0 0.00 0.00 0.00 31 1014.1
20230203000003 28 266 18.0 31.0 0.00 0.00 0.00 30 1014.0
20230202235502 29 218 6.0 29.0 0.00 0.00 0.00 30 1013.8
20230202235001 29 270 13.0 28.0 0.00 0.00 0.00 29 1013.8
20230202234502 30 226 7.0 27.0 0.00 0.00 0.00 28 1013.9
20230202234002 30 230 6.0 25.0 0.00 0.00 0.00 28 1014.0
20230202233502 30 231 11.0 30.0 0.00 0.00 0.00 27 1013.8
20230202232502 31 214 6.0 26.0 0.00 0.00 0.00 27 1013.7
20230202232001 31 250 13.0 30.0 0.00 0.00 0.00 27 1013.7
20230202231501 31 240 15.0 25.0 0.00 0.00 0.00 26 1013.8
20230202231002 32 249 6.0 25.0 0.00 0.00 0.00 26 1013.8
20230202230502 32 240 7.0 23.0 0.00 0.00 0.00 26 1013.7
20230202230001 32 313 8.0 28.0 0.00 0.00 0.00 26 1013.6
20230202224501 32 294 12.0 25.0 0.00 0.00 0.00 26 1013.5
20230202223502 33 318 8.0 24.0 0.00 0.00 0.00 26 1013.5
20230202223002 33 265 13.0 28.0 0.00 0.00 0.00 27 1013.6
20230202222502 33 253 13.0 25.0 0.00 0.00 0.00 26 1013.6
20230202221002 32 249 20.0 28.0 0.00 0.00 0.00 27 1013.5
20230202220001 33 276 10.0 35.0 0.00 0.00 0.00 27 1013.3
20230202215502 33 276 10.0 31.0 0.00 0.00 0.00 28 1013.3
20230202215002 33 237 6.0 19.0 0.00 0.00 0.00 28 1013.4
20230202214501 34 247 17.0 25.0 0.00 0.00 0.00 26 1013.0
20230202214002 34 203 2.0 19.0 0.00 0.00 0.00 28 1013.1
20230202213001 34 263 10.0 20.0 0.00 0.00 0.00 26 1013.1
20230202212502 34 193 4.0 12.0 0.00 0.00 0.00 26 1013.2
20230202211502 33 246 4.0 20.0 0.00 0.00 0.00 25 1012.9
20230202211002 34 208 4.0 25.0 0.00 0.00 0.00 26 1013.0
20230202210502 34 259 17.0 22.0 0.00 0.00 0.00 25 1013.0
20230202210002 34 269 12.0 21.0 0.00 0.00 0.00 25 1013.0
20230202205502 35 198 4.0 14.0 0.00 0.00 0.00 25 1012.9
20230202205002 35 195 3.0 23.0 0.00 0.00 0.00 27 1012.7
20230202204501 34 278 6.0 22.0 0.00 0.00 0.00 27 1012.9
20230202204002 35 225 5.0 26.0 0.00 0.00 0.00 29 1013.0
20230202203502 36 235 5.0 8.0 0.00 0.00 0.00 30 1013.0
20230202203002 34 221 6.0 24.0 0.00 0.00 0.00 31 1013.0
20230202202501 34 307 6.0 22.0 0.00 0.00 0.00 31 1013.0
20230202202002 34 284 13.0 26.0 0.00 0.00 0.00 30 1013.3
20230202201501 34 245 15.0 19.0 0.00 0.00 0.00 30 1013.1
20230202200501 33 280 4.0 23.0 0.00 0.00 0.00 31 1013.2
20230202195502 34 359 5.0 26.0 0.00 0.00 0.00 32 1013.4
20230202195002 33 304 5.0 21.0 0.00 0.00 0.00 33 1013.4
20230202194501 33 300 3.0 26.0 0.00 0.00 0.00 34 1013.4
20230202194002 33 233 14.0 18.0 0.00 0.00 0.00 35 1013.3
20230202192002 32 244 5.0 16.0 0.00 0.00 0.00 36 1013.5
20230202191001 32 258 11.0 30.0 0.00 0.00 0.00 37 1013.6
20230202190502 33 209 6.0 14.0 0.00 0.00 0.00 35 1013.4